Regional Weather Roundup
Issued by NWS

Home | Current Version | Previous Version | Text Only | Print | Product List | Glossary Off
Versions: 1 2 3 4 5 6 7 8 9 10 11 12 13 14 15 16 17 18 19 20 21 22 23 24 25 26 27 28 29 30 31 32 33 34 35 36 37 38 39 40 41 42 43 44 45 46 47 48 49 50

000
ASUS43 KLMK 261002
RWRKY
KENTUCKY REGIONAL WEATHER ROUNDUP
NATIONAL WEATHER SERVICE LOUISVILLE KY
500 AM EST SUN FEB 26 2017

NOTE "FAIR" INDICATES FEW OR NO CLOUDS BELOW 12,000 FEET
WITH NO SIGNIFICANT WEATHER AND/OR OBSTRUCTIONS TO VISIBILITY.

KYZ001>023-026-027-061>063-070>075-261100-
WESTERN AND SOUTH CENTRAL KENTUCKY

CITY           SKY/WX    TMP DP  RH WIND       PRES   REMARKS
PADUCAH        CLEAR     23  17  78 SE3       30.17S
HENDERSON      CLEAR     21  12  68 CALM      30.18R
OWENSBORO      CLEAR     25  21  85 CALM      30.20R
HOPKINSVILLE   CLEAR     28  21  76 CALM      30.19R
BOWLING GREEN  CLEAR     26  19  74 CALM      30.20R
GLASGOW        NOT AVBL
$$

KYZ024-025-028>034-038-045-046-053-261100-
NORTH CENTRAL KENTUCKY

CITY           SKY/WX    TMP DP  RH WIND       PRES   REMARKS
LOUISVILLE/SDF CLEAR     29  14  53 W3        30.18R
LOUISVILLE/LOU CLEAR     30  15  53 NW3       30.17R
FORT KNOX      CLEAR     21  16  80 CALM      30.15R
$$

KYZ035>037-039>044-047>052-055>060-089>105-261100-
NORTHEAST KENTUCKY

CITY           SKY/WX    TMP DP  RH WIND       PRES   REMARKS
LEXINGTON      PTCLDY    25  16  68 W6        30.14R WCI  18
COVINGTON      CLEAR     23  15  71 NW8       30.12R WCI  14
FRANKFORT      CLEAR     24  16  71 CALM      30.14R
$$

KYZ054-064>069-076>088-106>120-261100-
SOUTHEAST KENTUCKY

CITY           SKY/WX    TMP DP  RH WIND       PRES   REMARKS
JACKSON        CLEAR     26  18  71 SW3       30.11R
LONDON         CLEAR     24  20  84 CALM      30.14R
SOMERSET       PTCLDY    23  23 100 CALM      30.18R
MIDDLESBORO    CLEAR     25  22  91 CALM      30.16R
MONTICELLO     SUNNY     17  14  88 NE7       30.19R WCI   8
$$




USA.gov is the U.S. government's official web portal to all federal, state and local government web resources and services.